www.pogodaiklimat.ru

Погода и климат >> Архив погоды >> Канада >> Waterloo Wellington


ПОГОДА в Waterloo Wellington

  • Прогноз погоды в Waterloo Wellington
  • Монитор погоды в Waterloo Wellington
  • Климат города

АРХИВ ПОГОДЫ в Waterloo Wellington

Время (UTC), дата Ветер
(напр.,м/с)
 
Видим.   Явления Облачность Т
(С)
Тd
(С)
f
(%)
Тe
(С)
Тes
(С)
Комфортность P
(гПа)
Po
(гПа)
Тmin
(С)
Tmax
(С)
R
(мм)
R24
(мм)
S
(см)
00 14.09 В 3 16 км 3/3 600 м
[]
+18.4 +15.7 84 +19 +19 1023.1 984.8 +12.4 +25.9
03 14.09 В 3 16 км 10/0 2000 м
[]
+18.4 +16.4 88 +19 +19 1022.8 984.7
06 14.09 В 3 16 км 9/0
[]
+17.5 +16.0 91 +18 +18 1022.1 984.1 +12.4 +25.9 17
09 14.09 В 1 16 км 9/0
[]
+15.8 +15.7 99 +17 +17 1022.0 983.9
12 14.09 СВ 1 16 км 10/0 2000 м
[]
+17.5 +17.2 98 +19 +19 1022.8 984.6 +14.5 +25.9
15 14.09 Ю 4 16 км 5/5 300 м
[]
+25.0 +21.0 78 +31 +34 очень
душно
1022.1 984.1
18 14.09 Ю 2 9000 м дым 9/9 600 м
[]
+26.7 +20.1 67 +33 +34 очень
душно
1021.1 983.2 +14.5 +27.4
21 14.09 ЮВ 3 16 км 9/9 1000 м
[]
+28.3 +20.9 64 +35 +36 очень
душно
1020.3 982.4
00 15.09 ЮВ 4 16 км 5/5 1000 м
[]
+23.1 +20.7 86 +30 +30 очень
душно
1020.8 982.8 +14.5 +28.7
03 15.09 В 1 16 км ясно +17.7 +17.2 97 +19 +19 1021.7 983.7
06 15.09 В 1 300 м туман 3/3 50 м
[]
+15.9 +15.7 99 +17 +17 1021.4 983.4 +14.5 +28.7 19
09 15.09 СВ 1 100 м туман н/о +15.5 +15.5 100 +17 +17 1021.8 983.9
12 15.09 СЗ 2 4800 м дымка 5/5 1500 м
[]
+17.3 +17.3 100 +18 +18 1022.9 984.8 +14.3 +28.7
15 15.09 З 1 16 км {осадки} ясно +24.9 +20.4 76 +31 +40 очень
душно
1023.2 985.2
18 15.09 С 2 16 км {осадки} 3/3 1000 м
[]
+28.5 +19.4 58 +34 +43 очень
душно
1022.3 984.4 +14.3 +28.9 0.3
21 15.09 СЗ 2 16 км ясно +27.2 +20.0 65 +33 +38 очень
душно
1021.3 983.4
00 16.09 ЮВ 2 16 км 9/9 1000 м
[]
+22.6 +20.3 87 +29 +29 очень
душно
1021.9 983.8 +14.3 +29.5
03 16.09 ЮВ 1 16 км ясно +19.9 +19.3 96 +24 +24 комфорт 1022.5 984.6
06 16.09 СВ 2 9000 м дымка ясно +18.4 +17.9 97 +20 +20 1022.5 984.6 +14.3 +29.5
09 16.09 СВ 1 1200 м дымка ясно +17.1 +17.1 100 +18 +18 1022.8 984.8
12 16.09 СЗ 1 2400 м дымка {осадки} ясно +17.2 +17.2 100 +18 +19 1023.6 985.5 +15.2 +29.5 0.3
15 16.09 ЮВ 2 16 км ясно +26.1 +20.7 72 +33 +41 очень
душно
1023.5 985.6
18 16.09 ЮВ 4 14 км ясно +28.8 +19.1 56 +34 +43 очень
душно
1022.0 984.2 +15.2 +29.0
21 16.09 ЮВ 4 16 км 3/3 1000 м
[]
+26.0 +19.8 69 +32 +34 очень
душно
1020.1 982.2
00 17.09 ЮВ 4 16 км ясно +22.5 +20.3 87 +29 +29 очень
душно
1020.1 982.1 +15.2 +29.1
03 17.09 В 1 11 км ясно +17.9 +17.7 99 +20 +20 1020.0 982.1
06 17.09 В 1 300 м туман ясно +15.7 +15.5 99 +16 +16 1018.7 980.9 +15.2 +29.1
09 17.09 ЮВ 1 1600 м дымка ясно +14.9 +14.9 100 +15 +15 1017.5 979.6
12 17.09 ЮВ 1 16 км ясно +17.3 +17.3 100 +18 +19 1017.4 979.5 +13.5 +29.1
15 17.09 Ю 4 16 км ясно +23.7 +19.3 76 +29 +34 душно 1016.3 978.5
18 17.09 Ю 4 16 км 9/9 600 м
[]
+26.8 +19.5 64 +32 +33 очень
душно
1014.5 976.8 +13.5 +27.4
21 17.09 Ю 3 16 км 3/3 600 м
[]
+26.0 +18.9 65 +31 +33 очень
душно
1012.6 974.9
00 18.09 Ю 3 16 км ясно +22.3 +19.3 83 +28 +28 душно 1011.9 974.2 +13.5 +27.8
03 18.09 ЮЗ 2 16 км ясно +18.4 +17.8 96 +20 +20 1012.1 974.5
06 18.09 В 1 300 м туман 9/9 50 м
[]
+16.0 +16.0 100 +17 +17 1011.9 974.3 +13.5 +27.8
09 18.09 З 1 500 м туман ясно +15.8 +15.8 100 +16 +16 1011.4 973.8
12 18.09 СЗ 2 2400 м дымка {осадки} 10/10 50 м
[]
+18.6 +18.4 99 +20 +20 1012.2 974.5 +14.9 +27.8 0.3
15 18.09 З 4 14 км {осадки} 10/10 100 м
[]
+19.6 +18.4 93 +22 +22 комфорт 1012.4 974.6
18 18.09 СЗ 5 16 км ясно +23.9 +17.2 66 +28 +34 душно 1012.0 974.3 +14.9 +24.1
21 18.09 СЗ 5 16 км ясно +25.5 +16.0 56 +29 +31 душно 1011.1 973.5
00 19.09 СЗ 4 16 км ясно +19.3 +15.8 80 +21 +21 комфорт 1012.6 974.8 +14.9 +25.9
03 19.09 СЗ 4 16 км 5/0
[]
+14.2 +13.3 94 +13 +13 1014.1 976.1
06 19.09 С 3 16 км 10/0
[]
+14.1 +12.4 89 +13 +13 1014.3 976.5 +14.0 +25.9 17
09 19.09 С 3 16 км 9/9 1500 м
[]
+13.3 +11.9 91 +12 +12 1015.0 977.2
12 19.09 С 2 16 км ясно +11.9 +11.0 94 +11 +11 1017.8 979.6 +11.1 +25.9
15 19.09 С 4 16 км ясно +17.5 +11.9 70 +17 +23 1018.7 980.5
18 19.09 СВ 2 16 км ясно +21.8 +12.0 54 +24 +35 комфорт 1018.5 980.4 +11.1 +22.1
21 19.09 З 2 16 км ясно +23.1 +12.3 51 +26 +30 жарко 1017.4 979.4
00 20.09 В 4 16 км ясно +16.9 +13.9 82 +16 +16 1019.0 980.7 +11.1 +23.2
03 20.09 В 3 16 км 10/10 600 м
[]
+15.4 +14.0 91 +15 +15 1020.2 982.0
06 20.09 СВ 2 16 км 3/3 600 м
[]
+12.7 +12.1 96 +12 +12 1020.0 981.8 +11.1 +23.2
09 20.09 В 2 8000 м дымка ясно +9.9 +9.6 98 +9 +9 1020.1 981.9
12 20.09 В 1 16 км 10/0
[]
+13.3 +12.8 97 +14 +14 1021.5 983.1 +9.4 +23.2
15 20.09 В 5 16 км 10/0
[]
+17.3 +14.0 81 +17 +19 1022.2 983.9
18 20.09 В 5 16 км 10/0
[]
+18.1 +13.6 75 +18 +21 1021.0 982.7 +9.4 +18.4
21 20.09 В 6 16 км 9/0
[]
+18.1 +14.1 77 +18 +18 1019.0 980.7

 

Местоположение метеостанции Waterloo Wellington (Канада): широта 43.45 долгота -80.38 высота над уровнем моря 317 м.

В архиве по умолчанию представлена погода в Waterloo Wellington за последнюю неделю. Архивные данные за месяц целиком и за предыдущие месяцы, начиная с января 2011 года, Вы можете получить, выбрав интересующий диапазон дат из раскрывающегося списка и нажав кнопку "Ввод!".


*Определитесь, кто Вы:
робот инопланетянин человек

Внимание! Время в таблицах - всемирное. Для получения местного времени необходимо прибавить поправку, которая в Waterloo Wellington равна -5 ч.

Смотрите также архив погоды в соседних городах и на ближайших метеорологических станциях:

Погода в Guelph Turfgrass (Канада) (17 км)
Погода в Elora Rcs (Канада) (22 км)
Погода в Brantford Airport (Канада) (36 км)
Погода в Hamilton Rbg Cs (Канада) (43 км)
Погода в Hamilton Airport (Канада) (48 км)
Погода в Burlington Piers (Канада) (50 км)
Погода в Toronto (Канада) (65 км)
Погода в Delhi (Канада) (66 км)
Погода в Mount Forest (Канада) (66 км)
Погода в Simcoe (Канада) (67 км)

Пояснения к столбцам:

Ветер - указаны скорость ветра в м/с - средняя за 10 мин, порывы в срок и между сроками (в фигурных скобках) и направление, откуда дует ветер: С - северный, СВ - северо-восточный, В - восточный, ЮВ - юго-восточный, Ю - южный, ЮЗ - юго-западный, З - западный, СЗ - северо-западный.
Видимость - горизонтальная дальность видимости в метрах или километрах. При видимости от 1 до 10 км при отсутствии осадков обычно наблюдается дымка, при ухудшении видимости до 1 км и менее - туман. В сухую погоду видимость может ухудшаться дымом, пылью или мглою.
Явления - указаны атмосферные явления, наблюдавшиеся в срок или в последний час перед сроком; фигурными скобками обозначены явления, наблюдавшиеся между сроками (за 1-3 часа до срока); квадратными скобками обозначены град или гололедные отложения с указанием их диаметра в мм.
Облачность - указаны через наклонную черту общая и нижняя облачность в баллах и высота нижней границы облаков в метрах; квадратными скобками обозначены формы облаков: Ci - перистые, Cs - перисто-слоистые, Cc - перисто-кучевые, Ac - высококучевые, As - высокослоистые, Sc - слоисто-кучевые, Ns - слоисто-дождевые, Cu - кучевые, Cb - кучево-дождевые. Подробнее классификацию облаков см. в Атласе облаков (PDF).
T - Температура воздуха - температура, измеренная на высоте 2 м над землей.
Td - Температура точки росы - температура, при понижении до которой содержащийся в воздухе водяной пар достигнет насыщения.
f - Относительная влажность воздуха - влажноcть воздуха, измеренная на высоте 2 м над землей.
Te - Эффективная температура - температура, которую ощущает одетый по сезону человек в тени. Характеристика душности погоды. При расчете учитывается влияние влажности воздуха и скорости ветра на теплоощущения человека.
Tes - Эффективная температура на солнце - температура, которую ощущает человек, с поправкой на солнечный нагрев. Характеристика знойности погоды. Зависит от высоты солнца над горизонтом, облачности и скорости ветра. Ночью, в пасмурную погоду, а также при ветре 12 м/с и более поправка равна нулю.
P - Атмосферное давление - приведенное к уровню моря атмосферное давление.
Po - Атмосферное давление - измеренное на уровне метеостанции атмосферное давление.
Tmin - Минимальная температура - минимум температуры воздуха на высоте 2 м над землей.
Tmax - Максимальная температура - максимум температуры воздуха на высоте 2 м над землей.
R - Количество осадков - Количество выпавших осадков за период времени, мм. При наведении курсора мыши на число - период времени, за который выпало указанное количество осадков.
R24 - Количество осадков - Количество выпавших осадков за 24 часа, мм.
S - Снежный покров - Высота снежного покрова, см. При наведении курсора мыши на число - состояние снежного покрова и степень покрытия местности в баллах.